NDF38 LRTR-LDDU

Flight info

Callsign NDF38
Flight time 0h 54m
Altitude 34000
Route MAVIT3E MAVIT DCT GENLU DCT TIBRI/N0412F200 L187 MOKUN MOKUN2Y
Aircraft A320/M-SDE3FGHIRWY/LB1

Departure

Time 2026-05-08 12:41
Airport Timișoara Traian Vuia International Airport (LRTR)

Arrival

Time 2026-05-08 13:35
Airport Dubrovnik Ruđer Bošković Airport (LDDU)
Time Latitude Longitude Altitude Speed Heading
2026-05-08 12:19 45.81076 21.32080 342 ft 0 kts 200°
2026-05-08 12:22 45.81092 21.32087 354 ft 3 kts 192°
2026-05-08 12:22 45.81111 21.32090 351 ft 3 kts 171°
2026-05-08 12:22 45.81128 21.32082 347 ft 3 kts 132°
2026-05-08 12:22 45.81134 21.32071 345 ft 0 kts 110°
2026-05-08 12:33 45.81134 21.32074 342 ft 1 kts 110°
2026-05-08 12:33 45.81128 21.32096 347 ft 3 kts 110°
2026-05-08 12:33 45.81118 21.32138 344 ft 5 kts 110°
2026-05-08 12:34 45.81102 21.32198 342 ft 7 kts 108°
2026-05-08 12:34 45.81084 21.32278 346 ft 9 kts 108°
2026-05-08 12:34 45.81059 21.32375 343 ft 12 kts 111°
2026-05-08 12:34 45.81085 21.32479 345 ft 12 kts 62°
2026-05-08 12:35 45.81068 21.32605 349 ft 14 kts 109°
2026-05-08 12:35 45.81031 21.32749 344 ft 16 kts 110°
2026-05-08 12:35 45.80989 21.32913 342 ft 19 kts 109°
2026-05-08 12:35 45.80952 21.33071 347 ft 13 kts 109°
2026-05-08 12:36 45.80926 21.33175 342 ft 12 kts 110°
2026-05-08 12:36 45.80894 21.33298 345 ft 14 kts 109°
2026-05-08 12:36 45.80860 21.33442 345 ft 16 kts 104°
2026-05-08 12:36 45.80923 21.33542 344 ft 16 kts 20°
2026-05-08 12:37 45.81009 21.33634 350 ft 17 kts 75°
2026-05-08 12:37 45.80980 21.33799 350 ft 18 kts 111°
2026-05-08 12:37 45.80931 21.33985 345 ft 22 kts 110°
2026-05-08 12:37 45.80876 21.34199 338 ft 24 kts 110°
2026-05-08 12:38 45.80816 21.34446 338 ft 27 kts 109°
2026-05-08 12:38 45.80751 21.34706 338 ft 28 kts 110°
2026-05-08 12:38 45.80684 21.34973 350 ft 29 kts 110°
2026-05-08 12:38 45.80614 21.35254 347 ft 31 kts 109°
2026-05-08 12:39 45.80541 21.35551 346 ft 33 kts 110°
2026-05-08 12:39 45.80496 21.35742 344 ft 13 kts 94°
2026-05-08 12:39 45.80492 21.35881 337 ft 14 kts 133°
2026-05-08 12:39 45.80464 21.35837 347 ft 9 kts 296°
2026-05-08 12:40 45.80505 21.35687 348 ft 41 kts 288°
2026-05-08 12:40 45.80684 21.34978 350 ft 107 kts 290°
2026-05-08 12:40 45.80995 21.33740 344 ft 154 kts 290°
2026-05-08 12:40 45.81405 21.32116 385 ft 193 kts 291°
2026-05-08 12:41 45.81931 21.30134 671 ft 213 kts 291°
2026-05-08 12:41 45.82364 21.28428 2465 ft 163 kts 290°
2026-05-08 12:41 45.82779 21.26901 3051 ft 178 kts 294°
2026-05-08 12:41 45.83314 21.25213 3549 ft 185 kts 297°
2026-05-08 12:42 45.83878 21.23637 4363 ft 183 kts 295°
2026-05-08 12:42 45.84280 21.21781 4704 ft 204 kts 281°
2026-05-08 12:42 45.84623 21.19686 5222 ft 222 kts 285°
2026-05-08 12:42 45.85081 21.17543 6019 ft 227 kts 287°
2026-05-08 12:43 45.85590 21.15384 6808 ft 230 kts 288°
2026-05-08 12:43 45.85945 21.13115 7381 ft 243 kts 265°
2026-05-08 12:43 45.85333 21.10789 7744 ft 264 kts 229°
2026-05-08 12:43 45.83802 21.09366 8361 ft 276 kts 195°
2026-05-08 12:44 45.81883 21.09424 9131 ft 284 kts 162°
2026-05-08 12:44 45.80145 21.10824 9960 ft 291 kts 143°
2026-05-08 12:44 45.78586 21.12787 10422 ft 310 kts 140°
2026-05-08 12:44 45.76682 21.14401 10642 ft 330 kts 164°
2026-05-08 12:45 45.74341 21.14886 10846 ft 352 kts 178°
2026-05-08 12:45 45.71840 21.15009 11301 ft 365 kts 180°
2026-05-08 12:45 45.69283 21.14987 12047 ft 369 kts 182°
2026-05-08 12:45 45.66703 21.14913 12850 ft 373 kts 182°
2026-05-08 12:46 45.64129 21.14842 13603 ft 378 kts 182°
2026-05-08 12:46 45.61543 21.14802 14294 ft 382 kts 181°
2026-05-08 12:46 45.59185 21.14795 14891 ft 385 kts 180°
2026-05-08 12:46 45.56484 21.14812 15534 ft 390 kts 180°
2026-05-08 12:47 45.53762 21.14847 16182 ft 393 kts 180°
2026-05-08 12:47 45.51012 21.14885 16817 ft 397 kts 181°
2026-05-08 12:47 45.48237 21.14916 17448 ft 401 kts 181°
2026-05-08 12:47 45.45432 21.15112 18078 ft 406 kts 174°
2026-05-08 12:48 45.42661 21.15991 18648 ft 412 kts 163°
2026-05-08 12:48 45.40007 21.17592 19203 ft 418 kts 153°
2026-05-08 12:48 45.37516 21.19657 19769 ft 422 kts 151°
2026-05-08 12:48 45.34977 21.21775 20404 ft 425 kts 151°
2026-05-08 12:49 45.32411 21.23902 20985 ft 429 kts 151°
2026-05-08 12:49 45.29744 21.25817 21534 ft 431 kts 161°
2026-05-08 12:49 45.26852 21.26912 22063 ft 432 kts 174°
2026-05-08 12:49 45.23856 21.27070 22596 ft 432 kts 186°
2026-05-08 12:50 45.20898 21.26294 23123 ft 433 kts 199°
2026-05-08 12:50 45.18131 21.24630 23662 ft 433 kts 211°
2026-05-08 12:50 45.15634 21.22236 24115 ft 435 kts 217°
2026-05-08 12:50 45.13209 21.19738 24542 ft 439 kts 217°
2026-05-08 12:51 45.10728 21.17190 25019 ft 441 kts 217°
2026-05-08 12:51 45.05734 21.12084 25918 ft 445 kts 217°
2026-05-08 12:51 45.03218 21.09520 26350 ft 447 kts 217°
2026-05-08 12:52 45.00700 21.06953 26914 ft 445 kts 217°
2026-05-08 12:52 44.95701 21.01858 28150 ft 441 kts 217°
2026-05-08 12:52 44.93253 20.99367 28765 ft 439 kts 217°
2026-05-08 12:53 44.90786 20.96855 29399 ft 436 kts 217°
2026-05-08 12:53 44.88330 20.94358 30031 ft 434 kts 217°
2026-05-08 12:53 44.85884 20.91878 30585 ft 432 kts 217°
2026-05-08 12:53 44.83454 20.89422 31166 ft 428 kts 217°
2026-05-08 12:54 44.81040 20.86986 31770 ft 424 kts 217°
2026-05-08 12:54 44.78653 20.84579 32380 ft 420 kts 217°
2026-05-08 12:54 44.76289 20.82192 32994 ft 416 kts 217°
2026-05-08 12:54 44.73947 20.79824 33608 ft 412 kts 217°
2026-05-08 12:55 44.71621 20.77476 33950 ft 410 kts 217°
2026-05-08 12:55 44.69326 20.75168 34031 ft 414 kts 217°
2026-05-08 12:55 44.64600 20.70418 34028 ft 420 kts 216°
2026-05-08 12:56 44.59831 20.65630 34033 ft 422 kts 216°
2026-05-08 12:56 44.55050 20.60844 34034 ft 422 kts 216°
2026-05-08 12:57 44.50268 20.56065 34035 ft 422 kts 216°
2026-05-08 12:57 44.45509 20.51322 34026 ft 423 kts 216°
2026-05-08 12:58 44.40700 20.46552 34025 ft 424 kts 216°
2026-05-08 12:58 44.35886 20.41777 34031 ft 425 kts 216°
2026-05-08 12:59 44.31099 20.37026 34022 ft 425 kts 216°
2026-05-08 12:59 44.26270 20.32234 34019 ft 427 kts 216°
2026-05-08 13:00 44.21419 20.27442 34021 ft 428 kts 216°
2026-05-08 13:00 44.16553 20.22665 34028 ft 428 kts 216°
2026-05-08 13:01 44.11716 20.17920 34017 ft 429 kts 215°
2026-05-08 13:01 44.06828 20.13135 34018 ft 430 kts 215°
2026-05-08 13:02 44.01930 20.08334 34023 ft 431 kts 216°
2026-05-08 13:02 43.97026 20.03538 34023 ft 432 kts 215°
2026-05-08 13:03 43.92103 19.98735 34020 ft 433 kts 215°
2026-05-08 13:03 43.87189 19.93958 34022 ft 435 kts 215°
2026-05-08 13:04 43.82231 19.89150 34022 ft 435 kts 215°
2026-05-08 13:04 43.77262 19.84347 34011 ft 436 kts 215°
2026-05-08 13:05 43.72286 19.79539 34016 ft 437 kts 215°
2026-05-08 13:05 43.67336 19.74755 34020 ft 437 kts 215°
2026-05-08 13:06 43.62341 19.69944 34017 ft 438 kts 215°
2026-05-08 13:06 43.57338 19.65142 34015 ft 438 kts 215°
2026-05-08 13:07 43.52363 19.60384 34030 ft 438 kts 214°
2026-05-08 13:07 43.47361 19.55588 34019 ft 438 kts 215°
2026-05-08 13:08 43.42356 19.50813 34019 ft 438 kts 214°
2026-05-08 13:08 43.37370 19.46069 33994 ft 429 kts 214°
2026-05-08 13:09 43.32504 19.41429 33997 ft 424 kts 215°
2026-05-08 13:09 43.27668 19.36796 33997 ft 423 kts 215°
2026-05-08 13:10 43.22864 19.32196 33998 ft 429 kts 215°
2026-05-08 13:10 43.17920 19.27486 33997 ft 435 kts 215°
2026-05-08 13:11 43.12945 19.22753 33848 ft 436 kts 214°
2026-05-08 13:11 43.10449 19.20388 33578 ft 436 kts 214°
2026-05-08 13:11 43.07951 19.18022 33306 ft 437 kts 215°
2026-05-08 13:12 43.05451 19.15651 33010 ft 438 kts 214°
2026-05-08 13:12 43.02968 19.13300 32120 ft 444 kts 214°
2026-05-08 13:12 43.00412 19.10885 31204 ft 450 kts 214°
2026-05-08 13:12 42.97827 19.08444 30324 ft 454 kts 214°
2026-05-08 13:13 42.95207 19.05974 29200 ft 461 kts 214°
2026-05-08 13:13 42.92554 19.03475 28096 ft 466 kts 214°
2026-05-08 13:13 42.89877 19.00959 27007 ft 470 kts 214°
2026-05-08 13:13 42.87169 18.98416 25776 ft 476 kts 214°
2026-05-08 13:14 42.84434 18.95845 24563 ft 473 kts 214°
2026-05-08 13:14 42.81761 18.93334 23400 ft 462 kts 215°
2026-05-08 13:14 42.79172 18.90906 22372 ft 457 kts 214°
2026-05-08 13:14 42.76567 18.88461 21485 ft 453 kts 214°
2026-05-08 13:15 42.73974 18.86031 20574 ft 451 kts 214°
2026-05-08 13:15 42.71392 18.83618 19681 ft 450 kts 214°
2026-05-08 13:15 42.68814 18.81216 18791 ft 449 kts 213°
2026-05-08 13:15 42.66241 18.78821 17966 ft 446 kts 213°
2026-05-08 13:16 42.63712 18.76467 17111 ft 433 kts 214°
2026-05-08 13:16 42.61261 18.74186 16066 ft 418 kts 213°
2026-05-08 13:16 42.58915 18.72003 15284 ft 401 kts 213°
2026-05-08 13:16 42.56659 18.69905 14533 ft 390 kts 212°
2026-05-08 13:17 42.54418 18.67827 14104 ft 386 kts 213°
2026-05-08 13:17 42.52282 18.65846 13991 ft 371 kts 213°
2026-05-08 13:17 42.50188 18.63903 13868 ft 358 kts 212°
2026-05-08 13:17 42.48167 18.62028 13749 ft 346 kts 214°
2026-05-08 13:18 42.46256 18.60142 13612 ft 335 kts 221°
2026-05-08 13:18 42.44760 18.57799 13476 ft 325 kts 236°
2026-05-08 13:18 42.43807 18.55083 13343 ft 317 kts 251°
2026-05-08 13:18 42.43421 18.52177 13179 ft 312 kts 267°
2026-05-08 13:19 42.43573 18.49274 13076 ft 309 kts 276°
2026-05-08 13:19 42.43598 18.46381 12910 ft 307 kts 260°
2026-05-08 13:19 42.43047 18.43616 12743 ft 304 kts 246°
2026-05-08 13:19 42.42045 18.41099 12561 ft 304 kts 237°
2026-05-08 13:20 42.40965 18.38676 12388 ft 305 kts 238°
2026-05-08 13:20 42.39886 18.36208 12218 ft 305 kts 238°
2026-05-08 13:20 42.38816 18.33736 12019 ft 304 kts 238°
2026-05-08 13:20 42.37750 18.31266 11855 ft 304 kts 238°
2026-05-08 13:21 42.36687 18.28802 11684 ft 303 kts 238°
2026-05-08 13:21 42.35625 18.26342 11502 ft 303 kts 238°
2026-05-08 13:21 42.34579 18.23886 11328 ft 299 kts 242°
2026-05-08 13:21 42.33898 18.21247 11091 ft 298 kts 258°
2026-05-08 13:22 42.33800 18.18452 10805 ft 299 kts 275°
2026-05-08 13:22 42.34292 18.15734 10515 ft 299 kts 292°
2026-05-08 13:22 42.35237 18.13237 10215 ft 299 kts 298°
2026-05-08 13:22 42.36221 18.10768 9931 ft 298 kts 297°
2026-05-08 13:23 42.37199 18.08301 9617 ft 297 kts 297°
2026-05-08 13:23 42.38175 18.05835 9286 ft 297 kts 298°
2026-05-08 13:23 42.39135 18.03407 8846 ft 299 kts 298°
2026-05-08 13:23 42.40144 18.00860 8110 ft 314 kts 300°
2026-05-08 13:24 42.41393 17.98447 7668 ft 313 kts 318°
2026-05-08 13:24 42.43152 17.96802 7315 ft 305 kts 340°
2026-05-08 13:24 42.45164 17.96114 6835 ft 293 kts
2026-05-08 13:24 42.47144 17.96426 6201 ft 283 kts 21°
2026-05-08 13:25 42.48868 17.97598 5567 ft 274 kts 41°
2026-05-08 13:25 42.50148 17.99385 5382 ft 258 kts 57°
2026-05-08 13:25 42.50958 18.01487 4953 ft 249 kts 73°
2026-05-08 13:25 42.51255 18.03784 4391 ft 248 kts 89°
2026-05-08 13:26 42.51025 18.06104 3974 ft 250 kts 106°
2026-05-08 13:26 42.50356 18.08172 3844 ft 235 kts 115°
2026-05-08 13:26 42.49635 18.10076 3583 ft 223 kts 115°
2026-05-08 13:26 42.48937 18.11948 3316 ft 220 kts 115°
2026-05-08 13:27 42.48259 18.13760 3189 ft 211 kts 116°
2026-05-08 13:27 42.47593 18.15482 3040 ft 203 kts 116°
2026-05-08 13:27 42.46938 18.17152 2866 ft 198 kts 116°
2026-05-08 13:27 42.46298 18.18779 2655 ft 195 kts 116°
2026-05-08 13:28 42.45657 18.20400 2526 ft 196 kts 117°
2026-05-08 13:28 42.45019 18.22012 2517 ft 192 kts 116°
2026-05-08 13:28 42.44398 18.23578 2524 ft 191 kts 117°
2026-05-08 13:28 42.43771 18.25159 2511 ft 190 kts 117°
2026-05-08 13:29 42.43147 18.26734 2505 ft 190 kts 116°
2026-05-08 13:29 42.42527 18.28304 2505 ft 189 kts 116°
2026-05-08 13:29 42.41920 18.29890 2507 ft 190 kts 112°
2026-05-08 13:29 42.41534 18.31589 2508 ft 188 kts 99°
2026-05-08 13:30 42.41425 18.33346 2506 ft 188 kts 88°
2026-05-08 13:30 42.41586 18.35092 2506 ft 187 kts 76°
2026-05-08 13:30 42.42013 18.36752 2507 ft 187 kts 64°
2026-05-08 13:30 42.42692 18.38257 2507 ft 188 kts 52°
2026-05-08 13:31 42.43601 18.39523 2508 ft 189 kts 39°
2026-05-08 13:31 42.44685 18.40461 2503 ft 186 kts 27°
2026-05-08 13:31 42.45900 18.41040 2502 ft 186 kts 13°
2026-05-08 13:31 42.47192 18.41228 2506 ft 188 kts
2026-05-08 13:32 42.48485 18.41005 2501 ft 183 kts 347°
2026-05-08 13:32 42.49593 18.40442 2506 ft 162 kts 335°
2026-05-08 13:32 42.50519 18.39644 2412 ft 152 kts 324°
2026-05-08 13:32 42.51274 18.38670 2249 ft 148 kts 312°
2026-05-08 13:33 42.51871 18.37548 2068 ft 146 kts 303°
2026-05-08 13:33 42.52353 18.36349 1877 ft 144 kts 300°
2026-05-08 13:33 42.52823 18.35156 1682 ft 143 kts 301°
2026-05-08 13:33 42.53287 18.33985 1480 ft 142 kts 300°
2026-05-08 13:34 42.53757 18.32806 1293 ft 142 kts 299°
2026-05-08 13:34 42.54218 18.31643 1104 ft 139 kts 299°
2026-05-08 13:34 42.54672 18.30502 916 ft 138 kts 298°
2026-05-08 13:34 42.55130 18.29356 720 ft 137 kts 299°
2026-05-08 13:35 42.55577 18.28223 554 ft 135 kts 298°
2026-05-08 13:35 42.55997 18.27169 533 ft 104 kts 298°
2026-05-08 13:35 42.56192 18.26668 534 ft 22 kts 295°
2026-05-08 13:35 42.56271 18.26490 533 ft 23 kts 299°
2026-05-08 13:36 42.56343 18.26306 533 ft 14 kts 297°
2026-05-08 13:36 42.56301 18.26220 534 ft 13 kts 184°
2026-05-08 13:36 42.56232 18.26228 534 ft 9 kts 205°
2026-05-08 13:36 42.56227 18.26222 534 ft 0 kts 216°
2026-05-08 13:37 42.56224 18.26218 534 ft 1 kts 224°
2026-05-08 13:37 42.56211 18.26201 534 ft 4 kts 221°
2026-05-08 13:37 42.56181 18.26178 534 ft 5 kts 206°
2026-05-08 13:37 42.56170 18.26170 534 ft 2 kts 207°
2026-05-08 13:38 42.56160 18.26163 534 ft 1 kts 208°
2026-05-08 13:38 42.56149 18.26155 534 ft 0 kts 208°
2026-05-08 13:38 42.56145 18.26152 534 ft 0 kts 208°